Location: Rumah Apan
(2.7833°N, 113.9500°E)
Time: 15:53:57
(UTC+00:00)

SJ-11-01 - Pass Details

Date: 25 July 2021
Orbit: 683 x 702 km, 98.0° (Epoch: 18 September)

Event Time Altitude Azimuth Distance (km) Brightness Sun altitude
Rises 11:23:47 0° 169° (S) 3,060 7.3 -11.5°
Reaches altitude 10° 11:26:01 10° 169° (S) 2,145 6.5 -12.0°
Maximum altitude 11:30:44 87° 260° (W) 699 4.3 -13.1°
Drops below altitude 10° 11:35:26 10° 347° (NNW) 2,149 7.3 -14.2°
Sets 11:37:41 0° 348° (NNW) 3,066 8.1 -14.8°
